When you browse on this site, cookies collect data to enhance your experience and personalize the content and advertising you see.
Visit our Privacy Policy to learn more. By continuing to use the site, you agree to this use of cookies and data.
  • In Czech Republic
  • List of Countries
  • For 7 days
  • Water Temperature
  • Weather Map
  • Weather Widgets
  • user-avatar
    Login

    Hourly Weather Le Petit-Quevilly

    Today, 28 May, Thursday

    Time Temperature Precipitation Wind Pressure Humidity
    00:00 +11°C° 0 mm 3 mps 769 mmHg 78%
    01:00 +11°C° 0 mm 3 mps 769 mmHg 78%
    02:00 +10°C° 0 mm 3 mps 768 mmHg 78%
    03:00 +9°C° 0 mm 3 mps 768 mmHg 78%
    04:00 +10°C° 0 mm 3 mps 768 mmHg 80%
    05:00 +11°C° 0 mm 4 mps 768 mmHg 82%
    06:00 +11°C° 0 mm 4 mps 768 mmHg 84%
    07:00 +13°C° 0 mm 4 mps 768 mmHg 79%
    08:00 +15°C° 0 mm 4 mps 768 mmHg 73%
    09:00 +16°C° 0 mm 5 mps 768 mmHg 68%
    10:00 +17°C° 0 mm 5 mps 768 mmHg 64%
    11:00 +19°C° 0 mm 5 mps 768 mmHg 60%
    12:00 +19°C° 0 mm 5 mps 767 mmHg 56%
    13:00 +20°C° 0 mm 5 mps 767 mmHg 57%
    14:00 +20°C° 0 mm 5 mps 766 mmHg 58%
    15:00 +20°C° 0 mm 6 mps 766 mmHg 60%
    16:00 +19°C° 0 mm 5 mps 766 mmHg 64%
    17:00 +19°C° 0 mm 4 mps 766 mmHg 69%
    18:00 +18°C° 0 mm 4 mps 765 mmHg 74%
    19:00 +17°C° 0 mm 4 mps 765 mmHg 74%
    20:00 +14°C° 0 mm 4 mps 765 mmHg 74%
    21:00 +13°C° 0 mm 4 mps 765 mmHg 74%
    22:00 +12°C° 0 mm 4 mps 765 mmHg 74%
    23:00 +11°C° 0 mm 4 mps 765 mmHg 75%

    Tomorrow, 29 May, Friday

    Time Temperature Precipitation Wind Pressure Humidity
    00:00 +11°C° 0 mm 4 mps 765 mmHg 75%
    01:00 +10°C° 0 mm 4 mps 765 mmHg 76%
    02:00 +10°C° 0 mm 4 mps 765 mmHg 78%
    03:00 +8°C° 0 mm 4 mps 765 mmHg 79%
    04:00 +10°C° 0 mm 4 mps 764 mmHg 78%
    05:00 +10°C° 0 mm 4 mps 764 mmHg 77%
    06:00 +11°C° 0 mm 4 mps 764 mmHg 77%
    07:00 +13°C° 0 mm 4 mps 764 mmHg 72%
    08:00 +15°C° 0 mm 5 mps 764 mmHg 68%
    09:00 +16°C° 0 mm 5 mps 764 mmHg 64%
    10:00 +17°C° 0 mm 5 mps 764 mmHg 62%
    11:00 +19°C° 0 mm 5 mps 764 mmHg 59%
    12:00 +20°C° 0 mm 5 mps 763 mmHg 56%
    13:00 +20°C° 0 mm 5 mps 763 mmHg 56%
    14:00 +20°C° 0 mm 5 mps 763 mmHg 56%
    15:00 +20°C° 0 mm 5 mps 762 mmHg 56%
    16:00 +20°C° 0 mm 4 mps 762 mmHg 61%
    17:00 +19°C° 0 mm 4 mps 762 mmHg 67%
    18:00 +18°C° 0 mm 3 mps 761 mmHg 72%
    19:00 +17°C° 0 mm 3 mps 761 mmHg 75%
    20:00 +14°C° 0 mm 3 mps 762 mmHg 79%
    21:00 +12°C° 0 mm 3 mps 762 mmHg 83%
    22:00 +11°C° 0 mm 3 mps 762 mmHg 84%
    23:00 +11°C° 0 mm 3 mps 761 mmHg 85%

    Day after tomorrow, 30 May, Saturday

    Time Temperature Precipitation Wind Pressure Humidity
    00:00 +10°C° 0 mm 3 mps 761 mmHg 86%
    01:00 +10°C° 0 mm 3 mps 761 mmHg 86%
    02:00 +9°C° 0 mm 3 mps 761 mmHg 86%
    03:00 +9°C° 0 mm 3 mps 761 mmHg 87%
    04:00 +10°C° 0 mm 3 mps 761 mmHg 84%
    05:00 +11°C° 0 mm 3 mps 761 mmHg 81%
    06:00 +12°C° 0 mm 3 mps 761 mmHg 78%
    07:00 +14°C° 0 mm 3 mps 761 mmHg 73%
    08:00 +17°C° 0 mm 3 mps 761 mmHg 68%
    09:00 +18°C° 0 mm 4 mps 761 mmHg 63%
    10:00 +19°C° 0 mm 4 mps 761 mmHg 60%
    11:00 +20°C° 0 mm 4 mps 761 mmHg 57%
    12:00 +21°C° 0 mm 5 mps 761 mmHg 54%
    13:00 +21°C° 0 mm 5 mps 760 mmHg 55%
    14:00 +21°C° 0 mm 5 mps 760 mmHg 56%
    15:00 +21°C° 0 mm 4 mps 760 mmHg 57%
    16:00 +21°C° 0 mm 4 mps 760 mmHg 62%
    17:00 +20°C° 0 mm 3 mps 760 mmHg 68%
    18:00 +20°C° 0 mm 3 mps 759 mmHg 73%
    19:00 +18°C° 0 mm 3 mps 760 mmHg 76%
    20:00 +16°C° 0 mm 3 mps 760 mmHg 79%
    21:00 +13°C° 0 mm 3 mps 760 mmHg 82%
    22:00 +12°C° 0 mm 3 mps 760 mmHg 83%
    23:00 +12°C° 0 mm 3 mps 760 mmHg 84%

    31 May, Sunday

    Time Temperature Precipitation Wind Pressure Humidity
    00:00 +12°C° 0 mm 2 mps 760 mmHg 85%
    01:00 +12°C° 0 mm 2 mps 760 mmHg 86%
    02:00 +10°C° 0 mm 2 mps 760 mmHg 86%
    03:00 +10°C° 0 mm 2 mps 760 mmHg 87%
    04:00 +11°C° 0 mm 3 mps 760 mmHg 84%
    05:00 +11°C° 0 mm 3 mps 760 mmHg 82%
    06:00 +12°C° 0 mm 3 mps 760 mmHg 79%
    07:00 +14°C° 0 mm 3 mps 760 mmHg 72%
    08:00 +17°C° 0 mm 3 mps 761 mmHg 66%
    09:00 +19°C° 0 mm 3 mps 761 mmHg 60%
    10:00 +20°C° 0 mm 4 mps 761 mmHg 58%
    11:00 +21°C° 0 mm 4 mps 760 mmHg 57%
    12:00 +21°C° 0 mm 4 mps 760 mmHg 56%
    13:00 +21°C° 0 mm 4 mps 760 mmHg 57%
    14:00 +21°C° 0 mm 4 mps 760 mmHg 58%
    15:00 +21°C° 0 mm 4 mps 760 mmHg 59%
    16:00 +20°C° 0.1 mm 4 mps 760 mmHg 64%
    17:00 +20°C° 0.1 mm 4 mps 759 mmHg 68%
    18:00 +19°C° 0.1 mm 4 mps 759 mmHg 73%
    19:00 +17°C° 0 mm 4 mps 759 mmHg 77%
    20:00 +14°C° 0 mm 4 mps 759 mmHg 80%
    21:00 +12°C° 0 mm 3 mps 760 mmHg 84%
    22:00 +11°C° 0 mm 3 mps 759 mmHg 85%
    23:00 +11°C° 0 mm 3 mps 759 mmHg 86%

    1 June, Monday

    Time Temperature Precipitation Wind Pressure Humidity
    00:00 +10°C° 0 mm 2 mps 759 mmHg 88%
    01:00 +10°C° 0 mm 2 mps 759 mmHg 87%
    02:00 +10°C° 0 mm 2 mps 759 mmHg 87%
    03:00 +10°C° 0 mm 2 mps 759 mmHg 87%
    04:00 +12°C° 0 mm 2 mps 759 mmHg 85%
    05:00 +13°C° 0 mm 2 mps 759 mmHg 84%
    06:00 +14°C° 0 mm 2 mps 759 mmHg 82%
    07:00 +16°C° 0 mm 3 mps 759 mmHg 77%
    08:00 +17°C° 0 mm 3 mps 759 mmHg 72%
    09:00 +19°C° 0 mm 3 mps 759 mmHg 67%
    10:00 +20°C° 0 mm 3 mps 759 mmHg 65%
    11:00 +21°C° 0 mm 4 mps 758 mmHg 62%
    12:00 +22°C° 0 mm 4 mps 758 mmHg 59%
    13:00 +22°C° 0.1 mm 4 mps 758 mmHg 61%
    14:00 +22°C° 0.1 mm 4 mps 758 mmHg 64%
    15:00 +22°C° 0.1 mm 4 mps 757 mmHg 66%
    16:00 +21°C° 0.1 mm 4 mps 757 mmHg 71%
    17:00 +20°C° 0.1 mm 4 mps 757 mmHg 75%
    18:00 +19°C° 0.1 mm 3 mps 757 mmHg 80%
    19:00 +18°C° 0 mm 3 mps 757 mmHg 83%
    20:00 +15°C° 0 mm 4 mps 757 mmHg 87%
    21:00 +14°C° 0 mm 4 mps 757 mmHg 90%
    22:00 +13°C° 0 mm 3 mps 757 mmHg 90%
    23:00 +12°C° 0 mm 3 mps 757 mmHg 90%

    2 June, Tuesday

    Time Temperature Precipitation Wind Pressure Humidity
    00:00 +11°C° 0 mm 3 mps 757 mmHg 90%
    01:00 +11°C° 0 mm 3 mps 756 mmHg 91%
    02:00 +12°C° 0 mm 2 mps 756 mmHg 91%
    03:00 +10°C° 0 mm 2 mps 756 mmHg 91%
    04:00 +12°C° 0 mm 2 mps 756 mmHg 90%
    05:00 +12°C° 0 mm 3 mps 756 mmHg 88%
    06:00 +13°C° 0 mm 3 mps 756 mmHg 87%
    07:00 +16°C° 0 mm 3 mps 756 mmHg 83%
    08:00 +18°C° 0 mm 3 mps 756 mmHg 79%
    09:00 +20°C° 0 mm 3 mps 756 mmHg 75%
    10:00 +21°C° 0 mm 3 mps 756 mmHg 73%
    11:00 +22°C° 0 mm 3 mps 755 mmHg 70%
    12:00 +24°C° 0 mm 3 mps 755 mmHg 68%
    13:00 +22°C° 0.4 mm 4 mps 754 mmHg 71%
    14:00 +22°C° 0.4 mm 5 mps 754 mmHg 74%
    15:00 +21°C° 0.4 mm 5 mps 754 mmHg 77%
    16:00 +21°C° 0.2 mm 5 mps 753 mmHg 79%
    17:00 +20°C° 0.2 mm 5 mps 753 mmHg 80%
    18:00 +19°C° 0.2 mm 5 mps 753 mmHg 81%
    19:00 +18°C° 0 mm 4 mps 753 mmHg 85%
    20:00 +15°C° 0 mm 4 mps 753 mmHg 90%
    21:00 +14°C° 0 mm 4 mps 753 mmHg 94%
    22:00 +14°C° 0.1 mm 3 mps 753 mmHg 94%
    23:00 +14°C° 0.1 mm 3 mps 752 mmHg 95%
    Show more